TimeEST,TemperatureF,Dew PointF,Humidity,Sea Level PressureIn,VisibilityMPH,Wind Direction,Wind SpeedMPH,Gust SpeedMPH,PrecipitationIn,Events,Conditions,WindDirDegrees,DateUTC
12:15 AM,53.6,41.0,62,30.31,10.0,NNE,8.1,-,N/A,,Overcast,30,2012-11-18 05:15:00
12:35 AM,53.6,41.0,62,30.31,10.0,NNE,8.1,-,N/A,,Overcast,20,2012-11-18 05:35:00
12:55 AM,53.6,41.0,62,30.30,10.0,NNE,8.1,-,N/A,,Overcast,20,2012-11-18 05:55:00
1:15 AM,53.6,41.0,62,30.29,10.0,NNE,9.2,-,N/A,,Overcast,20,2012-11-18 06:15:00
1:35 AM,53.6,42.8,67,30.28,10.0,NNE,9.2,-,N/A,,Overcast,30,2012-11-18 06:35:00
1:55 AM,53.6,42.8,67,30.28,10.0,NE,6.9,-,N/A,,Overcast,40,2012-11-18 06:55:00
2:15 AM,53.6,42.8,67,30.28,10.0,NNE,8.1,-,N/A,,Mostly Cloudy,30,2012-11-18 07:15:00
2:35 AM,53.6,42.8,67,30.29,10.0,NNE,6.9,-,N/A,,Mostly Cloudy,30,2012-11-18 07:35:00
2:55 AM,53.6,42.8,67,30.28,10.0,NNE,12.7,16.1,N/A,,Overcast,30,2012-11-18 07:55:00
3:15 AM,53.6,41.0,62,30.28,10.0,NNE,9.2,-,N/A,,Overcast,30,2012-11-18 08:15:00
3:35 AM,53.6,41.0,62,30.28,10.0,NNE,10.4,16.1,N/A,,Overcast,20,2012-11-18 08:35:00
3:55 AM,51.8,41.0,67,30.28,10.0,North,9.2,-,N/A,,Overcast,10,2012-11-18 08:55:00
4:15 AM,51.8,41.0,67,30.28,10.0,NNE,6.9,-,N/A,,Overcast,20,2012-11-18 09:15:00
4:35 AM,51.8,41.0,67,30.29,10.0,NNE,6.9,-,N/A,,Overcast,20,2012-11-18 09:35:00
4:55 AM,51.8,41.0,67,30.30,10.0,North,5.8,-,N/A,,Overcast,10,2012-11-18 09:55:00
5:15 AM,51.8,41.0,67,30.30,10.0,NNE,6.9,-,N/A,,Overcast,20,2012-11-18 10:15:00
5:35 AM,51.8,39.2,62,30.31,10.0,NNE,8.1,-,N/A,,Overcast,20,2012-11-18 10:35:00
5:55 AM,51.8,39.2,62,30.31,10.0,NNE,10.4,-,N/A,,Overcast,20,2012-11-18 10:55:00
6:15 AM,51.8,39.2,62,30.30,10.0,NNE,11.5,-,N/A,,Overcast,20,2012-11-18 11:15:00
6:35 AM,51.8,39.2,62,30.31,10.0,NNE,10.4,-,N/A,,Overcast,20,2012-11-18 11:35:00
6:55 AM,51.8,41.0,67,30.30,10.0,North,10.4,-,N/A,,Mostly Cloudy,10,2012-11-18 11:55:00
7:15 AM,51.8,41.0,67,30.30,10.0,NNE,10.4,-,N/A,,Scattered Clouds,20,2012-11-18 12:15:00
7:35 AM,51.8,41.0,67,30.30,10.0,NNE,9.2,-,N/A,,Clear,20,2012-11-18 12:35:00
7:55 AM,51.8,41.0,67,30.31,10.0,NNE,10.4,-,N/A,,Clear,20,2012-11-18 12:55:00
8:15 AM,51.8,41.0,67,30.31,10.0,North,10.4,16.1,N/A,,Scattered Clouds,10,2012-11-18 13:15:00
8:55 AM,51.8,42.8,71,30.32,10.0,NNE,15.0,19.6,N/A,,Mostly Cloudy,20,2012-11-18 13:55:00
9:15 AM,53.6,42.8,67,30.32,10.0,NNE,11.5,17.3,N/A,,Scattered Clouds,20,2012-11-18 14:15:00
9:35 AM,53.6,42.8,67,30.31,10.0,NNE,13.8,19.6,N/A,,Scattered Clouds,20,2012-11-18 14:35:00
9:55 AM,55.4,44.6,67,30.32,10.0,NNE,13.8,20.7,N/A,,Overcast,30,2012-11-18 14:55:00
10:15 AM,55.4,44.6,67,30.32,10.0,NNE,12.7,20.7,N/A,,Overcast,30,2012-11-18 15:15:00
10:35 AM,55.4,44.6,67,30.32,10.0,NNE,13.8,19.6,N/A,,Overcast,20,2012-11-18 15:35:00
10:55 AM,55.4,44.6,67,30.32,10.0,NNE,11.5,17.3,N/A,,Overcast,30,2012-11-18 15:55:00
11:15 AM,59.0,44.6,59,30.32,10.0,NE,10.4,17.3,N/A,,Overcast,40,2012-11-18 16:15:00
11:35 AM,59.0,46.4,63,30.31,10.0,NE,8.1,-,N/A,,Overcast,40,2012-11-18 16:35:00
11:55 AM,59.0,46.4,63,30.30,10.0,NNE,12.7,-,N/A,,Overcast,20,2012-11-18 16:55:00
12:15 PM,60.8,46.4,59,30.29,10.0,North,10.4,17.3,N/A,,Overcast,10,2012-11-18 17:15:00
12:55 PM,59.0,46.4,63,30.28,10.0,NNE,10.4,18.4,N/A,,Overcast,30,2012-11-18 17:55:00
1:15 PM,60.8,46.4,59,30.26,10.0,NE,8.1,-,N/A,,Overcast,40,2012-11-18 18:15:00
1:35 PM,60.8,46.4,59,30.26,10.0,NNE,11.5,18.4,N/A,,Scattered Clouds,20,2012-11-18 18:35:00
1:55 PM,60.8,46.4,59,30.26,10.0,North,12.7,16.1,N/A,,Scattered Clouds,10,2012-11-18 18:55:00
2:15 PM,59.0,46.4,63,30.25,10.0,NNE,10.4,19.6,N/A,,Overcast,20,2012-11-18 19:15:00
2:35 PM,59.0,46.4,63,30.25,10.0,North,11.5,-,N/A,,Overcast,10,2012-11-18 19:35:00
2:55 PM,59.0,46.4,63,30.25,10.0,North,9.2,12.7,N/A,,Overcast,360,2012-11-18 19:55:00
3:15 PM,59.0,46.4,63,30.25,10.0,North,8.1,-,N/A,,Overcast,360,2012-11-18 20:15:00
3:35 PM,59.0,46.4,63,30.25,10.0,North,6.9,-,N/A,,Overcast,360,2012-11-18 20:35:00
3:55 PM,59.0,48.2,67,30.25,10.0,North,6.9,-,N/A,,Overcast,350,2012-11-18 20:55:00
4:15 PM,59.0,48.2,67,30.25,10.0,North,8.1,-,N/A,,Overcast,360,2012-11-18 21:15:00
4:55 PM,59.0,46.4,63,30.25,10.0,North,8.1,-,N/A,,Overcast,350,2012-11-18 21:55:00
5:15 PM,59.0,46.4,63,30.25,10.0,North,6.9,-,N/A,,Overcast,360,2012-11-18 22:15:00
5:55 PM,57.2,46.4,67,30.25,10.0,North,8.1,-,N/A,,Overcast,360,2012-11-18 22:55:00
6:15 PM,57.2,46.4,67,30.25,10.0,North,6.9,-,N/A,,Overcast,360,2012-11-18 23:15:00
6:35 PM,57.2,46.4,67,30.26,10.0,North,6.9,-,N/A,,Overcast,360,2012-11-18 23:35:00
6:55 PM,57.2,46.4,67,30.27,10.0,North,6.9,-,N/A,,Overcast,350,2012-11-18 23:55:00
7:15 PM,59.0,46.4,63,30.27,10.0,North,8.1,-,N/A,,Overcast,360,2012-11-19 00:15:00
7:35 PM,59.0,46.4,63,30.27,10.0,North,9.2,-,N/A,,Overcast,10,2012-11-19 00:35:00
7:55 PM,57.2,46.4,67,30.27,10.0,North,9.2,16.1,N/A,,Overcast,10,2012-11-19 00:55:00
8:15 PM,57.2,46.4,67,30.28,10.0,NNE,9.2,-,N/A,,Overcast,20,2012-11-19 01:15:00
8:35 PM,55.4,48.2,77,30.28,10.0,NNE,6.9,-,N/A,,Overcast,20,2012-11-19 01:35:00
8:55 PM,53.6,50.0,88,30.27,10.0,North,8.1,-,N/A,,Overcast,360,2012-11-19 01:55:00
9:15 PM,53.6,50.0,88,30.27,10.0,North,6.9,-,N/A,,Overcast,350,2012-11-19 02:15:00
9:35 PM,53.6,50.0,88,30.27,10.0,North,3.5,-,N/A,,Overcast,360,2012-11-19 02:35:00
9:55 PM,55.4,48.2,77,30.26,10.0,North,4.6,-,N/A,,Overcast,350,2012-11-19 02:55:00
10:15 PM,55.4,48.2,77,30.26,10.0,North,5.8,-,N/A,,Overcast,350,2012-11-19 03:15:00
10:35 PM,55.4,46.4,72,30.26,10.0,North,6.9,-,N/A,,Overcast,350,2012-11-19 03:35:00
10:55 PM,55.4,46.4,72,30.25,10.0,North,8.1,-,N/A,,Overcast,10,2012-11-19 03:55:00
11:15 PM,55.4,46.4,72,30.25,10.0,North,6.9,-,N/A,,Overcast,360,2012-11-19 04:15:00
11:35 PM,55.4,46.4,72,30.24,10.0,North,6.9,-,N/A,,Overcast,10,2012-11-19 04:35:00
11:55 PM,55.4,46.4,72,30.24,10.0,North,6.9,-,N/A,,Overcast,10,2012-11-19 04:55:00